QPF
0.00 0.00 0.00 0.00 0.01 0.01 0.00 0.00 0.01 0.02 0.02 0.02 0.02 0.02 0.04 0.05 0.04 0.03 0.03 0.03 0.03 0.08 0.14 0.10 0.05 0.06 0.08 0.09 0.06 0.05 0.06 0.05 0.06 0.06 0.05 0.04 0.05 0.04 0.04 0.04 0.05 0.06 0.06 0.07
0.00 0.00 0.00 0.01 0.01 0.01 0.01 0.01 0.02 0.02 0.02 0.02 0.03 0.02 0.03 0.03 0.04 0.03 0.02 0.02 0.02 0.05 0.09 0.05 0.04 0.08 0.14 0.18 0.17 0.14 0.10 0.07 0.05 0.05 0.04 0.04 0.04 0.03 0.04 0.04 0.05 0.06 0.06 0.07
0.01 0.01 0.01 0.02 0.01 0.01 0.01 0.00 0.01 0.01 0.02 0.02 0.03 0.04 0.05 0.05 0.04 0.03 0.02 0.02 0.01 0.01 0.02 0.03 0.03 0.05 0.10 0.15 0.14 0.11 0.08 0.06 0.03 0.03 0.03 0.02 0.03 0.04 0.04 0.04 0.05 0.07 0.06 0.05
0.00 0.00 0.01 0.02 0.01 0.01 0.01 0.01 0.01 0.01 0.01 0.01 0.02 0.02 0.03 0.03 0.03 0.03 0.03 0.02 0.01 0.02 0.02 0.03 0.04 0.05 0.06 0.07 0.07 0.07 0.06 0.04 0.03 0.02 0.01 0.02 0.02 0.03 0.04 0.05 0.05 0.05 0.05 0.04
0.01 0.01 0.01 0.01 0.01 0.01 0.01 0.01 0.01 0.01 0.01 0.00 0.01 0.01 0.02 0.03 0.04 0.05 0.06 0.02 0.01 0.02 0.02 0.03 0.03 0.04 0.04 0.04 0.04 0.03 0.02 0.02 0.02 0.01 0.01 0.01 0.02 0.02 0.03 0.04 0.05 0.05 0.04 0.04
0.00 0.01 0.01 0.01 0.00 0.00 0.01 0.02 0.01 0.00 0.01 0.00 0.00 0.01 0.02 0.02 0.03 0.02 0.01 0.01 0.01 0.01 0.02 0.02 0.02 0.02 0.02 0.02 0.02 0.02 0.02 0.02 0.01 0.01 0.01 0.01 0.02 0.03 0.03 0.03 0.03 0.03 0.04 0.03
0.00 0.01 0.02 0.01 0.00 0.01 0.01 0.01 0.01 0.00 0.00 0.00 0.00 0.01 0.02 0.01 0.01 0.01 0.02 0.01 0.01 0.01 0.02 0.02 0.02 0.02 0.02 0.01 0.02 0.02 0.01 0.01 0.01 0.01 0.01 0.02 0.02 0.02 0.03 0.03 0.03 0.03 0.03 0.03
0.01 0.01 0.01 0.00 0.00 0.00 0.01 0.01 0.01 0.01 0.00 0.00 0.00 0.01 0.01 0.01 0.01 0.01 0.01 0.02 0.02 0.02 0.02 0.02 0.01 0.02 0.01 0.01 0.02 0.02 0.02 0.01 0.01 0.02 0.03 0.03 0.03 0.03 0.03 0.03 0.03 0.03 0.03 0.02
0.00 0.00 0.00 0.00 0.00 0.01 0.01 0.01 0.01 0.01 0.01 0.01 0.00 0.01 0.01 0.01 0.02 0.02 0.02 0.02 0.02 0.03 0.04 0.03 0.02 0.02 0.01 0.01 0.02 0.05 0.05 0.04 0.04 0.04 0.04 0.03 0.03 0.03 0.03 0.03 0.03 0.02 0.01 0.01
0.01 0.01 0.00 0.00 0.01 0.01 0.01 0.01 0.01 0.01 0.01 0.01 0.01 0.01 0.01 0.01 0.01 0.02 0.03 0.03 0.03 0.05 0.06 0.05 0.03 0.02 0.02 0.02 0.03 0.06 0.09 0.08 0.08 0.07 0.06 0.05 0.04 0.04 0.03 0.02 0.02 0.02 0.01 0.01
0.01 0.01 0.01 0.01 0.02 0.03 0.01 0.01 0.01 0.01 0.01 0.01 0.01 0.01 0.01 0.01 0.03 0.05 0.06 0.04 0.04 0.04 0.03 0.02 0.02 0.02 0.02 0.02 0.02 0.04 0.08 0.09 0.09 0.08 0.08 0.07 0.06 0.04 0.03 0.02 0.01 0.01 0.01 0.00
0.02 0.02 0.03 0.03 0.02 0.01 0.01 0.01 0.00 0.01 0.02 0.03 0.02 0.03 0.02 0.03 0.06 0.05 0.03 0.02 0.02 0.01 0.01 0.01 0.02 0.02 0.01 0.02 0.02 0.02 0.04 0.06 0.06 0.07 0.08 0.08 0.06 0.04 0.03 0.02 0.02 0.01 0.01 0.01
0.01 0.01 0.02 0.02 0.02 0.01 0.01 0.01 0.00 0.01 0.01 0.01 0.01 0.02 0.02 0.03 0.05 0.03 0.01 0.01 0.02 0.02 0.02 0.01 0.01 0.01 0.01 0.01 0.02 0.03 0.04 0.05 0.06 0.06 0.06 0.06 0.05 0.04 0.03 0.02 0.02 0.02 0.01 0.01
0.02 0.02 0.01 0.00 0.01 0.00 0.00 0.00 0.00 0.00 0.00 0.00 0.01 0.01 0.02 0.03 0.04 0.04 0.04 0.04 0.03 0.02 0.01 0.01 0.01 0.01 0.01 0.01 0.02 0.03 0.06 0.06 0.06 0.04 0.04 0.04 0.04 0.03 0.03 0.03 0.03 0.03 0.02 0.01
0.01 0.02 0.02 0.01 0.01 0.01 0.00 0.00 0.00 0.00 0.00 0.00 0.01 0.01 0.02 0.07 0.11 0.08 0.06 0.04 0.02 0.01 0.01 0.01 0.01 0.01 0.02 0.02 0.02 0.03 0.04 0.04 0.04 0.03 0.03 0.04 0.04 0.03 0.04 0.04 0.04 0.04 0.03 0.02
0.01 0.01 0.02 0.02 0.02 0.01 0.01 0.00 0.00 0.00 0.00 0.00 0.01 0.01 0.02 0.03 0.05 0.04 0.03 0.03 0.03 0.02 0.01 0.01 0.02 0.02 0.02 0.02 0.01 0.02 0.03 0.04 0.04 0.03 0.02 0.02 0.02 0.02 0.02 0.03 0.03 0.03 0.03 0.02
0.01 0.01 0.02 0.02 0.02 0.02 0.01 0.01 0.00 0.00 0.00 0.00 0.02 0.03 0.03 0.03 0.03 0.02 0.03 0.03 0.03 0.03 0.02 0.01 0.01 0.02 0.02 0.02 0.02 0.01 0.02 0.03 0.04 0.04 0.02 0.01 0.01 0.01 0.02 0.01 0.01 0.01 0.01 0.01
0.02 0.02 0.02 0.02 0.01 0.01 0.01 0.01 0.01 0.00 0.00 0.01 0.02 0.03 0.04 0.05 0.03 0.03 0.04 0.04 0.03 0.03 0.02 0.01 0.01 0.01 0.01 0.01 0.01 0.02 0.02 0.03 0.03 0.03 0.02 0.01 0.01 0.01 0.01 0.01 0.01 0.01 0.01 0.01
0.00 0.01 0.01 0.01 0.01 0.01 0.01 0.02 0.02 0.01 0.01 0.02 0.03 0.04 0.04 0.04 0.05 0.06 0.06 0.05 0.03 0.02 0.01 0.01 0.02 0.01 0.01 0.01 0.01 0.02 0.02 0.03 0.04 0.03 0.03 0.02 0.01 0.01 0.01 0.01 0.01 0.01 0.01 0.01
0.00 0.00 0.00 0.00 0.00 0.01 0.01 0.01 0.02 0.02 0.02 0.02 0.02 0.03 0.04 0.06 0.08 0.08 0.05 0.05 0.04 0.02 0.01 0.01 0.01 0.01 0.01 0.01 0.01 0.01 0.01 0.03 0.04 0.05 0.04 0.03 0.03 0.03 0.03 0.03 0.03 0.02 0.01 0.01
0.01 0.01 0.01 0.00 0.01 0.01 0.01 0.01 0.02 0.03 0.03 0.02 0.02 0.03 0.03 0.04 0.05 0.07 0.03 0.01 0.01 0.01 0.01 0.01 0.01 0.01 0.01 0.01 0.01 0.01 0.01 0.03 0.03 0.03 0.04 0.05 0.06 0.05 0.03 0.02 0.02 0.01 0.01 0.01
0.01 0.01 0.01 0.01 0.01 0.01 0.01 0.02 0.02 0.02 0.02 0.03 0.03 0.03 0.03 0.03 0.03 0.03 0.02 0.01 0.01 0.00 0.01 0.01 0.01 0.01 0.01 0.01 0.01 0.01 0.01 0.01 0.02 0.03 0.03 0.04 0.05 0.05 0.04 0.02 0.02 0.02 0.02 0.02
0.01 0.01 0.01 0.01 0.01 0.02 0.02 0.02 0.02 0.02 0.02 0.03 0.03 0.04 0.03 0.02 0.02 0.02 0.01 0.01 0.01 0.01 0.01 0.01 0.01 0.01 0.01 0.01 0.01 0.01 0.01 0.01 0.01 0.02 0.02 0.02 0.03 0.04 0.05 0.03 0.03 0.03 0.03 0.02
0.02 0.01 0.01 0.02 0.02 0.03 0.03 0.03 0.03 0.03 0.03 0.02 0.02 0.03 0.02 0.02 0.02 0.02 0.02 0.01 0.02 0.02 0.02 0.02 0.01 0.01 0.01 0.01 0.00 0.01 0.01 0.01 0.01 0.01 0.01 0.02 0.03 0.04 0.04 0.03 0.03 0.03 0.02 0.02
0.02 0.02 0.02 0.03 0.03 0.03 0.03 0.04 0.04 0.04 0.03 0.02 0.02 0.02 0.03 0.03 0.02 0.02 0.02 0.01 0.02 0.02 0.01 0.01 0.01 0.01 0.01 0.01 0.01 0.01 0.01 0.01 0.01 0.01 0.02 0.03 0.03 0.03 0.02 0.02 0.03 0.03 0.02 0.02
0.02 0.04 0.05 0.05 0.04 0.03 0.04 0.04 0.03 0.03 0.03 0.03 0.03 0.03 0.03 0.03 0.02 0.03 0.02 0.02 0.03 0.02 0.02 0.02 0.02 0.02 0.02 0.02 0.02 0.02 0.01 0.01 0.01 0.02 0.02 0.02 0.02 0.02 0.02 0.03 0.03 0.03 0.03 0.02
0.03 0.04 0.05 0.05 0.04 0.04 0.04 0.04 0.04 0.03 0.03 0.04 0.04 0.04 0.04 0.04 0.03 0.03 0.03 0.03 0.03 0.02 0.02 0.03 0.04 0.03 0.03 0.03 0.03 0.02 0.02 0.01 0.01 0.02 0.02 0.02 0.02 0.02 0.02 0.02 0.02 0.02 0.02 0.02
MSLP
1008.09 1008.56 1009.06 1009.59 1010.12 1010.61 1011.03 1011.32 1011.43 1011.35 1011.06 1010.58 1009.92 1009.14 1008.28 1007.39 1006.52 1005.70 1004.94 1004.27 1003.69 1003.21 1002.85 1002.61 1002.51 1002.54 1002.72 1003.03 1003.46 1003.96 1004.51 1005.06 1005.58 1006.04 1006.44 1006.76 1007.01 1007.21 1007.38 1007.52 1007.64 1007.74 1007.80 1007.83
1008.94 1009.43 1009.87 1010.25 1010.58 1010.85 1011.04 1011.15 1011.16 1011.08 1010.88 1010.58 1010.18 1009.69 1009.13 1008.50 1007.83 1007.13 1006.43 1005.74 1005.09 1004.52 1004.04 1003.70 1003.50 1003.46 1003.58 1003.84 1004.20 1004.64 1005.11 1005.57 1005.99 1006.36 1006.66 1006.90 1007.09 1007.25 1007.39 1007.51 1007.62 1007.71 1007.77 1007.78
1009.95 1010.44 1010.82 1011.08 1011.23 1011.30 1011.30 1011.25 1011.17 1011.06 1010.93 1010.77 1010.57 1010.32 1010.00 1009.60 1009.11 1008.54 1007.91 1007.24 1006.57 1005.95 1005.41 1005.00 1004.73 1004.63 1004.68 1004.87 1005.16 1005.50 1005.87 1006.21 1006.52 1006.77 1006.97 1007.13 1007.26 1007.37 1007.47 1007.58 1007.67 1007.75 1007.79 1007.78
1010.96 1011.42 1011.73 1011.88 1011.90 1011.82 1011.67 1011.50 1011.34 1011.21 1011.12 1011.06 1011.01 1010.93 1010.80 1010.58 1010.25 1009.81 1009.27 1008.66 1008.01 1007.39 1006.84 1006.40 1006.10 1005.95 1005.94 1006.06 1006.26 1006.50 1006.74 1006.96 1007.15 1007.28 1007.38 1007.45 1007.52 1007.59 1007.66 1007.75 1007.83 1007.89 1007.90 1007.86
1011.75 1012.16 1012.40 1012.47 1012.40 1012.22 1011.98 1011.74 1011.53 1011.39 1011.33 1011.34 1011.40 1011.45 1011.46 1011.38 1011.18 1010.86 1010.43 1009.89 1009.32 1008.74 1008.22 1007.80 1007.49 1007.32 1007.27 1007.31 1007.42 1007.55 1007.68 1007.78 1007.84 1007.87 1007.87 1007.87 1007.88 1007.91 1007.96 1008.03 1008.09 1008.13 1008.12 1008.05
1012.19 1012.52 1012.70 1012.71 1012.59 1012.37 1012.10 1011.84 1011.64 1011.52 1011.49 1011.55 1011.68 1011.82 1011.93 1011.96 1011.87 1011.67 1011.34 1010.91 1010.42 1009.93 1009.48 1009.10 1008.81 1008.63 1008.55 1008.53 1008.56 1008.59 1008.61 1008.60 1008.56 1008.49 1008.42 1008.36 1008.33 1008.33 1008.36 1008.40 1008.45 1008.46 1008.43 1008.32
1012.21 1012.44 1012.56 1012.55 1012.42 1012.22 1011.98 1011.76 1011.60 1011.53 1011.55 1011.67 1011.85 1012.05 1012.23 1012.34 1012.34 1012.23 1012.01 1011.69 1011.32 1010.92 1010.55 1010.24 1009.99 1009.82 1009.72 1009.66 1009.61 1009.56 1009.49 1009.39 1009.26 1009.13 1009.00 1008.90 1008.83 1008.81 1008.82 1008.84 1008.86 1008.85 1008.78 1008.65
1011.82 1011.97 1012.04 1012.03 1011.94 1011.81 1011.65 1011.52 1011.45 1011.45 1011.54 1011.72 1011.94 1012.19 1012.42 1012.58 1012.66 1012.63 1012.50 1012.28 1012.01 1011.72 1011.44 1011.19 1010.99 1010.84 1010.73 1010.63 1010.53 1010.42 1010.27 1010.11 1009.92 1009.73 1009.57 1009.43 1009.35 1009.30 1009.29 1009.29 1009.29 1009.24 1009.14 1008.98
1011.16 1011.23 1011.28 1011.29 1011.28 1011.25 1011.22 1011.21 1011.25 1011.36 1011.53 1011.76 1012.04 1012.32 1012.58 1012.78 1012.90 1012.93 1012.88 1012.75 1012.57 1012.37 1012.17 1011.98 1011.82 1011.68 1011.56 1011.44 1011.30 1011.14 1010.95 1010.74 1010.51 1010.30 1010.11 1009.96 1009.85 1009.79 1009.76 1009.73 1009.69 1009.61 1009.48 1009.28
1010.37 1010.39 1010.44 1010.51 1010.59 1010.68 1010.79 1010.93 1011.11 1011.33 1011.59 1011.88 1012.20 1012.51 1012.78 1013.00 1013.16 1013.23 1013.23 1013.17 1013.06 1012.92 1012.78 1012.63 1012.50 1012.37 1012.24 1012.09 1011.93 1011.73 1011.51 1011.28 1011.04 1010.81 1010.61 1010.46 1010.34 1010.26 1010.20 1010.14 1010.07 1009.95 1009.78 1009.56
1009.62 1009.60 1009.68 1009.81 1010.00 1010.23 1010.49 1010.77 1011.08 1011.41 1011.76 1012.11 1012.46 1012.79 1013.08 1013.31 1013.48 1013.58 1013.62 1013.59 1013.52 1013.43 1013.31 1013.19 1013.07 1012.93 1012.79 1012.62 1012.43 1012.22 1011.99 1011.75 1011.51 1011.29 1011.10 1010.94 1010.82 1010.72 1010.63 1010.54 1010.43 1010.27 1010.07 1009.83
1009.00 1008.99 1009.09 1009.30 1009.59 1009.94 1010.33 1010.75 1011.18 1011.61 1012.03 1012.44 1012.82 1013.17 1013.46 1013.70 1013.88 1013.99 1014.05 1014.04 1014.00 1013.92 1013.81 1013.69 1013.55 1013.40 1013.23 1013.05 1012.85 1012.63 1012.40 1012.17 1011.95 1011.75 1011.57 1011.42 1011.30 1011.19 1011.08 1010.95 1010.80 1010.61 1010.38 1010.11
1008.53 1008.53 1008.68 1008.96 1009.34 1009.80 1010.30 1010.83 1011.35 1011.86 1012.35 1012.80 1013.21 1013.58 1013.88 1014.13 1014.32 1014.44 1014.50 1014.51 1014.47 1014.39 1014.28 1014.14 1013.98 1013.80 1013.61 1013.40 1013.19 1012.97 1012.76 1012.55 1012.36 1012.20 1012.05 1011.92 1011.80 1011.69 1011.56 1011.41 1011.22 1011.00 1010.74 1010.46
1008.16 1008.19 1008.38 1008.73 1009.19 1009.72 1010.31 1010.91 1011.51 1012.08 1012.62 1013.11 1013.55 1013.94 1014.27 1014.53 1014.73 1014.87 1014.95 1014.96 1014.92 1014.83 1014.70 1014.54 1014.35 1014.14 1013.92 1013.70 1013.48 1013.27 1013.08 1012.91 1012.76 1012.63 1012.53 1012.43 1012.33 1012.22 1012.08 1011.91 1011.70 1011.46 1011.18 1010.88
1007.77 1007.85 1008.10 1008.50 1009.02 1009.62 1010.26 1010.93 1011.57 1012.19 1012.77 1013.30 1013.77 1014.19 1014.54 1014.84 1015.06 1015.23 1015.32 1015.35 1015.31 1015.21 1015.06 1014.87 1014.65 1014.42 1014.17 1013.93 1013.71 1013.52 1013.36 1013.22 1013.13 1013.05 1012.99 1012.93 1012.86 1012.77 1012.63 1012.46 1012.24 1011.97 1011.68 1011.38
1007.30 1007.42 1007.73 1008.18 1008.75 1009.41 1010.10 1010.80 1011.49 1012.15 1012.76 1013.32 1013.83 1014.28 1014.68 1015.01 1015.28 1015.48 1015.60 1015.65 1015.62 1015.52 1015.36 1015.14 1014.90 1014.63 1014.37 1014.12 1013.90 1013.72 1013.59 1013.50 1013.45 1013.42 1013.41 1013.40 1013.36 1013.29 1013.18 1013.01 1012.79 1012.52 1012.23 1011.92
1006.68 1006.87 1007.23 1007.75 1008.37 1009.06 1009.80 1010.54 1011.26 1011.95 1012.59 1013.19 1013.74 1014.24 1014.68 1015.06 1015.38 1015.62 1015.78 1015.85 1015.84 1015.74 1015.57 1015.35 1015.08 1014.80 1014.52 1014.26 1014.04 1013.88 1013.77 1013.71 1013.71 1013.73 1013.76 1013.79 1013.80 1013.76 1013.67 1013.52 1013.31 1013.06 1012.77 1012.47
1005.94 1006.21 1006.65 1007.22 1007.90 1008.64 1009.41 1010.18 1010.94 1011.66 1012.34 1012.98 1013.57 1014.11 1014.60 1015.03 1015.39 1015.67 1015.87 1015.98 1015.98 1015.90 1015.73 1015.50 1015.23 1014.93 1014.64 1014.38 1014.17 1014.01 1013.92 1013.89 1013.91 1013.96 1014.04 1014.10 1014.14 1014.14 1014.07 1013.95 1013.77 1013.54 1013.27 1012.98
1005.17 1005.53 1006.04 1006.68 1007.42 1008.21 1009.03 1009.84 1010.62 1011.37 1012.09 1012.76 1013.38 1013.96 1014.49 1014.96 1015.36 1015.69 1015.92 1016.05 1016.08 1016.02 1015.86 1015.64 1015.37 1015.07 1014.78 1014.51 1014.30 1014.14 1014.05 1014.03 1014.07 1014.14 1014.23 1014.32 1014.39 1014.41 1014.38 1014.29 1014.14 1013.94 1013.71 1013.45
1004.50 1004.94 1005.53 1006.24 1007.04 1007.88 1008.74 1009.58 1010.40 1011.18 1011.91 1012.61 1013.26 1013.86 1014.42 1014.92 1015.35 1015.70 1015.96 1016.12 1016.17 1016.13 1015.99 1015.78 1015.52 1015.23 1014.95 1014.69 1014.47 1014.31 1014.22 1014.19 1014.23 1014.30 1014.39 1014.49 1014.57 1014.62 1014.61 1014.56 1014.45 1014.29 1014.09 1013.87
1004.04 1004.55 1005.21 1005.98 1006.83 1007.71 1008.60 1009.48 1010.32 1011.11 1011.87 1012.57 1013.23 1013.85 1014.41 1014.92 1015.36 1015.73 1016.00 1016.18 1016.26 1016.24 1016.14 1015.95 1015.72 1015.45 1015.18 1014.93 1014.72 1014.56 1014.46 1014.42 1014.43 1014.49 1014.57 1014.67 1014.75 1014.81 1014.83 1014.80 1014.74 1014.62 1014.47 1014.30
1003.85 1004.41 1005.12 1005.93 1006.82 1007.73 1008.64 1009.53 1010.38 1011.19 1011.94 1012.65 1013.30 1013.91 1014.46 1014.96 1015.40 1015.77 1016.06 1016.25 1016.36 1016.37 1016.30 1016.15 1015.96 1015.73 1015.49 1015.26 1015.05 1014.89 1014.79 1014.73 1014.72 1014.76 1014.82 1014.90 1014.98 1015.05 1015.09 1015.09 1015.07 1015.00 1014.90 1014.77
1003.94 1004.53 1005.26 1006.08 1006.98 1007.90 1008.81 1009.70 1010.55 1011.35 1012.09 1012.78 1013.41 1014.00 1014.54 1015.02 1015.45 1015.81 1016.10 1016.31 1016.44 1016.49 1016.46 1016.37 1016.23 1016.05 1015.85 1015.66 1015.48 1015.33 1015.22 1015.15 1015.13 1015.14 1015.19 1015.25 1015.32 1015.39 1015.45 1015.48 1015.49 1015.47 1015.42 1015.34
1004.27 1004.84 1005.56 1006.37 1007.24 1008.14 1009.04 1009.91 1010.74 1011.52 1012.24 1012.91 1013.52 1014.08 1014.59 1015.05 1015.46 1015.81 1016.10 1016.33 1016.49 1016.58 1016.61 1016.58 1016.50 1016.38 1016.25 1016.10 1015.96 1015.84 1015.75 1015.68 1015.65 1015.65 1015.67 1015.72 1015.79 1015.86 1015.93 1016.00 1016.04 1016.06 1016.06 1016.01
1004.73 1005.26 1005.93 1006.69 1007.53 1008.39 1009.25 1010.09 1010.89 1011.64 1012.34 1012.98 1013.56 1014.09 1014.58 1015.02 1015.42 1015.76 1016.06 1016.31 1016.50 1016.64 1016.72 1016.76 1016.75 1016.71 1016.64 1016.56 1016.47 1016.39 1016.32 1016.27 1016.24 1016.24 1016.27 1016.31 1016.38 1016.46 1016.54 1016.63 1016.70 1016.76 1016.78 1016.77
1005.21 1005.68 1006.28 1006.99 1007.76 1008.56 1009.38 1010.18 1010.94 1011.67 1012.34 1012.95 1013.52 1014.03 1014.50 1014.93 1015.31 1015.66 1015.97 1016.24 1016.46 1016.64 1016.79 1016.89 1016.95 1016.99 1017.00 1016.98 1016.96 1016.93 1016.90 1016.88 1016.87 1016.88 1016.92 1016.97 1017.04 1017.13 1017.23 1017.33 1017.42 1017.50 1017.54 1017.55
1005.62 1006.03 1006.56 1007.19 1007.89 1008.64 1009.40 1010.16 1010.89 1011.59 1012.24 1012.84 1013.39 1013.90 1014.36 1014.78 1015.17 1015.52 1015.84 1016.13 1016.39 1016.61 1016.80 1016.97 1017.10 1017.20 1017.28 1017.34 1017.38 1017.40 1017.43 1017.45 1017.47 1017.51 1017.56 1017.63 1017.71 1017.81 1017.91 1018.02 1018.12 1018.21 1018.26 1018.26
Thickness
5780 5790 5792 5788 5789 5792 5783 5771 5758 5760 5761 5769 5778 5782 5783 5782 5779 5777 5773 5771 5769 5766 5762 5760 5758 5755 5752 5749 5746 5743 5737 5733 5730 5728 5725 5723 5720 5717 5714 5712 5709 5706 5703 5701
5772 5785 5786 5783 5788 5790 5786 5780 5772 5769 5766 5782 5784 5782 5780 5778 5776 5771 5769 5768 5767 5764 5760 5757 5754 5751 5748 5745 5741 5736 5731 5728 5725 5723 5720 5717 5714 5712 5709 5706 5703 5700 5697 5695
5751 5768 5773 5761 5777 5781 5778 5780 5776 5763 5769 5779 5775 5775 5775 5775 5773 5770 5768 5766 5763 5760 5757 5754 5751 5748 5743 5740 5737 5732 5727 5723 5720 5717 5714 5712 5710 5706 5702 5699 5696 5693 5691 5688
5741 5750 5739 5758 5787 5789 5779 5775 5778 5776 5777 5778 5777 5777 5778 5776 5772 5769 5767 5764 5760 5756 5753 5750 5747 5744 5740 5736 5732 5726 5721 5718 5715 5712 5709 5706 5703 5699 5696 5693 5690 5686 5683 5681
5728 5728 5737 5762 5780 5782 5769 5761 5774 5773 5774 5775 5776 5770 5767 5774 5773 5769 5766 5762 5758 5754 5750 5745 5741 5738 5734 5729 5725 5720 5716 5712 5710 5707 5704 5701 5697 5694 5691 5687 5684 5681 5677 5674
5726 5724 5722 5750 5780 5790 5774 5748 5770 5771 5768 5768 5767 5748 5753 5768 5769 5765 5761 5757 5753 5749 5745 5739 5735 5732 5727 5721 5717 5713 5711 5708 5706 5703 5700 5696 5692 5689 5686 5682 5678 5675 5671 5667
5722 5720 5731 5762 5779 5781 5744 5742 5767 5769 5767 5764 5758 5755 5761 5764 5762 5759 5756 5752 5748 5743 5738 5734 5731 5726 5719 5715 5711 5710 5708 5704 5701 5698 5694 5691 5687 5683 5679 5676 5671 5668 5664 5661
5715 5712 5721 5765 5768 5756 5751 5762 5765 5765 5766 5763 5759 5760 5759 5757 5754 5752 5747 5745 5741 5735 5730 5727 5725 5719 5713 5709 5708 5705 5702 5698 5695 5692 5690 5687 5681 5677 5672 5668 5663 5659 5655 5652
5724 5727 5748 5760 5760 5763 5763 5760 5761 5761 5762 5761 5756 5751 5750 5747 5745 5744 5741 5738 5733 5728 5722 5720 5718 5714 5708 5705 5703 5699 5695 5691 5688 5686 5683 5679 5675 5670 5666 5661 5657 5652 5648 5644
5725 5735 5747 5753 5757 5759 5761 5760 5761 5760 5758 5756 5750 5747 5743 5741 5738 5736 5733 5729 5725 5720 5715 5712 5710 5708 5704 5701 5697 5693 5687 5684 5680 5677 5674 5671 5668 5665 5660 5656 5651 5647 5643 5639
5719 5730 5738 5744 5748 5752 5755 5756 5755 5755 5754 5750 5746 5742 5739 5735 5731 5728 5725 5722 5719 5714 5710 5706 5704 5700 5698 5695 5691 5685 5681 5677 5674 5670 5667 5664 5660 5658 5655 5652 5649 5644 5639 5635
5711 5724 5725 5731 5742 5747 5746 5745 5746 5746 5744 5743 5742 5737 5733 5728 5726 5723 5719 5716 5711 5708 5704 5701 5698 5694 5692 5690 5686 5680 5675 5671 5668 5664 5661 5657 5653 5650 5649 5646 5644 5640 5637 5632
5723 5729 5730 5734 5737 5741 5739 5739 5741 5739 5737 5733 5733 5732 5727 5721 5718 5716 5712 5708 5705 5702 5699 5696 5692 5689 5687 5684 5680 5675 5670 5666 5662 5658 5655 5651 5647 5643 5640 5638 5637 5634 5631 5627
5725 5725 5721 5725 5727 5732 5733 5733 5734 5732 5730 5728 5726 5724 5720 5715 5712 5708 5704 5702 5700 5697 5693 5690 5687 5683 5681 5678 5674 5669 5665 5662 5658 5653 5650 5646 5643 5639 5636 5632 5629 5626 5625 5622
5715 5717 5715 5719 5722 5724 5725 5724 5721 5719 5719 5717 5716 5714 5711 5707 5704 5702 5700 5697 5694 5689 5686 5683 5679 5677 5675 5672 5668 5663 5659 5655 5652 5648 5644 5641 5637 5635 5632 5628 5624 5620 5617 5615
5705 5708 5709 5709 5710 5713 5714 5713 5710 5709 5710 5709 5707 5705 5704 5702 5699 5695 5692 5690 5685 5681 5679 5676 5673 5671 5669 5666 5662 5657 5653 5651 5647 5642 5638 5635 5632 5629 5625 5622 5619 5615 5611 5608
5693 5693 5695 5696 5699 5700 5701 5703 5702 5702 5702 5701 5700 5699 5697 5694 5690 5687 5684 5682 5680 5677 5674 5670 5667 5665 5663 5659 5655 5651 5647 5644 5642 5637 5633 5629 5626 5623 5620 5616 5613 5610 5607 5605
5693 5693 5693 5691 5691 5692 5693 5695 5695 5695 5695 5695 5694 5692 5688 5684 5681 5679 5677 5674 5671 5667 5666 5664 5662 5659 5656 5653 5649 5645 5641 5637 5634 5630 5627 5624 5620 5618 5614 5611 5608 5605 5602 5599
5687 5687 5687 5687 5687 5685 5685 5686 5687 5688 5688 5687 5685 5682 5680 5678 5675 5672 5669 5666 5661 5658 5658 5658 5655 5652 5649 5646 5643 5639 5635 5632 5628 5625 5621 5619 5615 5612 5609 5606 5603 5600 5597 5593
5678 5679 5680 5680 5681 5679 5677 5678 5678 5678 5679 5679 5676 5673 5670 5669 5667 5665 5661 5658 5657 5656 5655 5653 5649 5646 5643 5640 5637 5633 5629 5626 5622 5618 5615 5612 5609 5607 5604 5601 5599 5595 5592 5588
5667 5669 5669 5670 5671 5671 5671 5671 5670 5669 5670 5670 5668 5665 5662 5660 5659 5657 5652 5649 5651 5652 5649 5646 5643 5640 5637 5634 5631 5626 5623 5619 5616 5613 5610 5607 5604 5602 5599 5597 5594 5591 5588 5584
5658 5659 5660 5661 5662 5663 5664 5664 5664 5663 5662 5662 5661 5659 5656 5653 5651 5649 5647 5646 5646 5646 5643 5639 5637 5634 5631 5628 5623 5620 5617 5614 5611 5608 5605 5602 5599 5597 5594 5592 5589 5586 5583 5579
5650 5651 5652 5653 5654 5654 5656 5656 5656 5655 5654 5653 5652 5651 5649 5647 5645 5642 5639 5641 5641 5639 5636 5633 5631 5628 5624 5620 5617 5613 5611 5608 5605 5602 5599 5596 5594 5592 5590 5588 5584 5581 5578 5575
5642 5643 5644 5646 5647 5646 5645 5647 5648 5648 5647 5646 5646 5645 5643 5640 5638 5638 5637 5636 5635 5632 5628 5626 5623 5620 5616 5613 5610 5606 5603 5601 5598 5596 5594 5591 5589 5587 5585 5583 5580 5577 5574 5571
5634 5635 5636 5636 5636 5636 5637 5638 5639 5638 5638 5638 5638 5637 5636 5635 5632 5631 5630 5629 5627 5623 5620 5618 5615 5612 5609 5606 5602 5599 5596 5594 5592 5590 5588 5586 5584 5582 5580 5578 5575 5572 5570 5567
5626 5626 5628 5628 5629 5629 5630 5630 5629 5629 5629 5628 5628 5628 5628 5627 5626 5624 5622 5620 5618 5616 5612 5609 5606 5604 5602 5599 5596 5593 5590 5587 5586 5584 5582 5581 5579 5578 5576 5573 5571 5568 5565 5562
5619 5619 5619 5620 5621 5623 5624 5624 5622 5621 5621 5620 5619 5619 5618 5618 5616 5615 5613 5611 5609 5607 5604 5602 5600 5597 5595 5592 5590 5587 5585 5583 5582 5580 5578 5577 5575 5574 5572 5570 5567 5564 5561 5557